カタログに戻る

STARLINK-31085

運用中通信VLEO
NORAD 58609·PAYLOAD·🇺🇸 United States

打ち上げ Dec 19, 2023 から Cape Canaveral Space Force Station

Loading…

次のパス (今後24時間)

TLE

最新Source: CelesTrak SupGP

元期: Sep 15, 2026, 01:57 UTC

1 58609C 23200W   26258.08173611  .00014541  00000+0  52674-3 0  2584
2 58609  42.9991 179.3756 0001395 272.4087 119.8420 15.27568026    18

AllMySatでSTARLINK-31085をリアルタイム追跡

Download on the App Store